Ohio State University, OH

9:18 PM EDT on July 23, 2017 (GMT -0400)
Ohio State University

Weather History for KOSU - November, 2012

Change the Weather History Date:

Saturday, November 3, 2012

  Actual Average Record
Temperature  
Mean Temperature 42 °F -  
Max Temperature 46 °F 54 °F 75 °F (2003)
Min Temperature 39 °F 36 °F 19 °F (2006)
Degree Days  
Heating Degree Days 23    
Moisture  
Dew Point 31 °F    
Average Humidity 67    
Maximum Humidity 79    
Minimum Humidity 58    
Precipitation  
Precipitation 0.00 in - - ()
Sea Level Pressure  
Sea Level Pressure 30.14 in    
Wind  
Wind Speed 3 mph (NNW)    
Max Wind Speed 7 mph    
Max Gust Speed -    
Visibility 10 miles    
Events Rain    
Averages and records for this station are not official NWS values.
T = Trace of Precipitation, MM = Missing Value Source: NWS Daily Summary

Daily Weather History Graph

Daily Weather History Graph

Search for Another Location

Airport or City:

Trip Planner

Search our weather history database for the weather conditions in past years. The results will help you decide how hot, cold, wet, or windy it might be!

Date:

Astronomy

Nov. 03, 2012 Rise Set
Actual Time 8:04 AM EDT 6:26 PM EDT
Civil Twilight 7:36 AM EDT 6:55 PM EDT
Nautical Twilight 7:03 AM EDT 7:27 PM EDT
Astronomical Twilight 6:32 AM EDT 7:58 PM EDT
Moon 10:06 PM EDT (11/3) 12:07 PM EDT (11/3)
Length of Visible Light 11h 19m
Length of Day
10h 22m
Waning Gibbous, 80% of the Moon is Illuminated
Nov 3
Waning Gibbous
Nov 6
Last Quarter
Nov 13
New
Nov 20
First Quarter
Nov 28
Full

Hourly Weather History & Observations

Time (EDT) Temp. Windchill Dew Point Humidity Pressure Visibility Wind Dir Wind Speed Gust Speed Precip Events Conditions
12:53 AM 39.0 °F - 32.0 °F 76% 30.09 in 10.0 mi Calm Calm - N/A   Overcast
1:53 AM 39.0 °F 36.8 °F 33.1 °F 79% 30.09 in 10.0 mi West 3.5 mph - N/A   Overcast
2:53 AM 39.0 °F 35.7 °F 32.0 °F 76% 30.10 in 10.0 mi West 4.6 mph - N/A   Overcast
3:53 AM 39.9 °F 36.7 °F 30.9 °F 70% 30.10 in 10.0 mi WNW 4.6 mph - N/A   Overcast
4:53 AM 39.9 °F 35.1 °F 30.0 °F 68% 30.11 in 10.0 mi NNW 6.9 mph - N/A   Overcast
5:53 AM 39.9 °F 35.1 °F 30.0 °F 68% 30.13 in 10.0 mi NNW 6.9 mph - N/A   Overcast
6:53 AM 39.0 °F 34.8 °F 30.0 °F 70% 30.14 in 10.0 mi NW 5.8 mph - N/A   Overcast
7:53 AM 39.0 °F 35.7 °F 30.0 °F 70% 30.15 in 10.0 mi North 4.6 mph - N/A   Overcast
8:53 AM 39.0 °F - 30.0 °F 70% 30.17 in 10.0 mi Calm Calm - N/A   Scattered Clouds
9:53 AM 41.0 °F 36.4 °F 30.0 °F 65% 30.18 in 10.0 mi NNW 6.9 mph - N/A   Clear
10:53 AM 41.0 °F 39.0 °F 28.9 °F 62% 30.19 in 10.0 mi NNW 3.5 mph - N/A   Clear
11:53 AM 42.1 °F - 30.0 °F 62% 30.18 in 10.0 mi Calm Calm - N/A   Scattered Clouds
12:53 PM 43.0 °F - 30.0 °F 60% 30.16 in 10.0 mi Calm Calm - N/A   Scattered Clouds
1:53 PM 44.1 °F 40.8 °F 30.9 °F 60% 30.15 in 10.0 mi West 5.8 mph - N/A   Scattered Clouds
2:53 PM 44.1 °F - 30.9 °F 60% 30.14 in 10.0 mi Calm Calm - N/A   Partly Cloudy
3:53 PM 45.0 °F - 30.9 °F 58% 30.12 in 10.0 mi Calm Calm - N/A   Partly Cloudy
4:53 PM 44.1 °F 40.8 °F 30.0 °F 58% 30.12 in 10.0 mi NE 5.8 mph - N/A   Clear
5:53 PM 42.1 °F 37.7 °F 30.9 °F 65% 30.12 in 10.0 mi North 6.9 mph - N/A   Clear
6:53 PM 41.0 °F 38.0 °F 30.0 °F 65% 30.14 in 10.0 mi NNE 4.6 mph - N/A   Mostly Cloudy
7:53 PM 41.0 °F 37.1 °F 30.9 °F 67% 30.14 in 10.0 mi North 5.8 mph - 0.00 in Rain Light Rain
8:53 PM 41.0 °F 37.1 °F 30.9 °F 67% 30.14 in 10.0 mi NNE 5.8 mph - 0.00 in   Overcast
9:53 PM 39.9 °F 36.7 °F 30.9 °F 70% 30.14 in 10.0 mi NNE 4.6 mph - N/A   Overcast
10:53 PM 39.9 °F 36.7 °F 32.0 °F 73% 30.15 in 10.0 mi NE 4.6 mph - N/A   Overcast